Regional Weather Roundup
Issued by NWS Sioux Falls, SD

Home | Current Version | Previous Version | Text Only | Print | Product List | Glossary Off
Versions: 1 2 3 4 5 6 7 8 9 10 11 12 13 14 15 16 17 18 19 20 21 22 23 24 25 26 27 28 29 30 31 32 33 34 35 36 37 38 39 40 41 42 43 44 45 46 47 48 49 50

454
ASUS43 KFSD 220002
RWRFSD

WEATHER ROUNDUP FOR SE SOUTH DAKOTA/SW MINNESOTA/NW IOWA
NATIONAL WEATHER SERVICE SIOUX FALLS SD
700 PM CDT MON AUG 21 2017

NOTE: "FAIR" INDICATES FEW OR NO CLOUDS BELOW 12,000 FEET WITH NO
SIGNIFICANT WEATHER AND OR OBSTRUCTIONS TO VISIBILITY.


SDZ038>040-050-052>070-220100-
SOUTHEAST SOUTH DAKOTA

CITY           SKY/WX    TMP DP  RH WIND       PRES   REMARKS
BROOKINGS      CLOUDY    71  63  75 NW7       29.98R
CHAMBERLAIN    SUNNY     79  68  70 W8        30.00S
6HR MIN TEMP:  68; 6HR MAX TEMP:  79;

HURON          PTSUNNY   79  65  62 N10       29.96R
6HR MIN TEMP:  67; 6HR MAX TEMP:  79;

MADISON        CLOUDY    72  68  88 N3        30.00R
MITCHELL       SUNNY     75  65  70 NW3       29.99R
6HR MIN TEMP:  67; 6HR MAX TEMP:  79; 6HR PCP:  0.03;

SIOUX FALLS    PTSUNNY   71  66  84 SW6       29.98S
6HR MIN TEMP:  67; 6HR MAX TEMP:  72; 6HR PCP:  1.54;

WINNER         FAIR      78  66  66 N10       30.03R
YANKTON        CLOUDY    70  65  84 NE7       29.98F
$$

MNZ071-072-080-081-089-090-097-098-220100-
SOUTHWEST MINNESOTA

CITY           SKY/WX    TMP DP  RH WIND       PRES   REMARKS
FAIRMONT       CLOUDY    66  62  87 SW10      29.93R
JACKSON        CLOUDY    63  63 100 W6        29.98R
LUVERNE        CLOUDY    64  63  94 S3        30.00R
MARSHALL       CLOUDY    71  65  81 W7        29.94R
6HR MIN TEMP:  62; 6HR MAX TEMP:  71; 6HR PCP:  0.53;

MONTEVIDEO     MOSUNNY   72  70  94 CALM      29.92R
PIPESTONE      CLOUDY    72  66  83 SW7       29.98F
REDWOOD FALLS  CLOUDY    71  65  81 SW12      29.91R
TRACY          CLOUDY    72  67  84 SW7       29.97S
WINDOM         CLOUDY    66  63  88 SW8       29.97F
WORTHINGTON    PTSUNNY   66  63  90 SW6       29.99S
$$

IAZ001>003-012>014-020>022-031-032-NEZ013-014-SDZ071-220100-
NORTHWEST IOWA

CITY           SKY/WX    TMP DP  RH WIND       PRES   REMARKS
CHEROKEE       LGT RAIN  65  65  99 SW6       29.97R
DENISON        PTSUNNY   70  63  78 E9        29.99F
ESTHERVILLE    CLOUDY    65  64  97 S7        29.94R
ORANGE CITY    CLOUDY    66  64  94 N5        29.99R
SHELDON        CLOUDY    64  63  94 W5        29.98F
SIOUX CITY     TSTM      67  66  97 S9        30.00R FOG
6HR MIN TEMP:  65; 6HR MAX TEMP:  81; 6HR PCP:  0.96;

SPENCER        CLOUDY    66  63  90 SE7       29.93F
6HR MIN TEMP:  64; 6HR MAX TEMP:  69; 6HR PCP:  1.46;

STORM LAKE     CLOUDY    64  63  94 CALM      29.98R
$$

ABBREVIATIONS USED IN REMARKS
   TC - TEMPERATURE IN CELSIUS
  WCI - WIND CHILL INDEX
   HX - HEAT INDEX
  VSB - VISIBILITY





USA.gov is the U.S. government's official web portal to all federal, state and local government web resources and services.